Weather History for KBWG - May, 2013

Change the Weather History Date:

Monday, May 27, 2013

  Actual Average Record
Temperature  
Mean Temperature 72 °F 70 °F  
Max Temperature 87 °F 81 °F 98 °F (1911)
Min Temperature 56 °F 58 °F 35 °F (1961)
Degree Days  
Heating Degree Days 0 1  
Month to date heating degree days 57 70  
Since 1 July heating degree days 3875 4039  
Cooling Degree Days 7 6  
Month to date cooling degree days 106 93  
Year to date cooling degree days 159 129  
Growing Degree Days 22 (Base 50)    
Moisture  
Dew Point 56 °F    
Average Humidity 62    
Maximum Humidity 86    
Minimum Humidity 37    
Precipitation  
Precipitation 0.00 in 0.18 in 2.41 in (1991)
Month to date precipitation 4.35 4.91  
Year to date precipitation 23.95 21.23  
Snow  
Snow 0.00 in 0.00 in 0.00 in ()
Month to date snowfall 0.0 0.0  
Since 1 July snowfall 3.8 9.1  
Snow Depth 0.00 in    
Sea Level Pressure  
Sea Level Pressure 30.07 in    
Wind  
Wind Speed 8 mph (SSW)    
Max Wind Speed 21 mph    
Max Gust Speed 26 mph    
Visibility 10 miles    
Events      
T = Trace of Precipitation, MM = Missing Value Source: NWS Daily Summary

Daily Weather History Graph

Daily Weather History Graph

Search for Another Location

Airport or City:

Trip Planner

Search our weather history database for the weather conditions in past years. The results will help you decide how hot, cold, wet, or windy it might be!

Date:

Astronomy

May. 27, 2013 Rise Set
Actual Time 5:29 AM CDT 7:56 PM CDT
Civil Twilight 4:59 AM CDT 8:26 PM CDT
Nautical Twilight 4:22 AM CDT 9:03 PM CDT
Astronomical Twilight 3:42 AM CDT 9:44 PM CDT
Moon 10:37 PM CDT (5/27) 8:05 AM CDT (5/27)
Length of Visible Light 15h 26m
Length of Day
14h 26m
Waning Gibbous, 91% of the Moon is Illuminated
May 27
Waning Gibbous
May 31
Last Quarter
Jun 8
New
Jun 16
First Quarter
Jun 23
Full

Hourly Weather History & Observations

Time (CDT) Temp. Heat Index Dew Point Humidity Pressure Visibility Wind Dir Wind Speed Gust Speed Precip Events Conditions
12:53 AM 62.1 °F - 55.0 °F 78% 30.13 in 10.0 mi Calm Calm - N/A   Clear
1:53 AM 60.1 °F - 55.0 °F 83% 30.12 in 10.0 mi Calm Calm - N/A   Clear
2:53 AM 59.0 °F - 54.0 °F 83% 30.11 in 10.0 mi Calm Calm - N/A   Clear
3:53 AM 57.9 °F - 54.0 °F 87% 30.10 in 10.0 mi Calm Calm - N/A   Clear
4:53 AM 57.0 °F - 54.0 °F 89% 30.12 in 10.0 mi Calm Calm - N/A   Clear
5:53 AM 57.0 °F - 53.1 °F 87% 30.14 in 10.0 mi Calm Calm - N/A   Clear
6:53 AM 61.0 °F - 55.9 °F 83% 30.14 in 10.0 mi Calm Calm - N/A   Clear
7:53 AM 68.0 °F - 59.0 °F 73% 30.13 in 10.0 mi Calm Calm - N/A   Clear
8:53 AM 75.9 °F - 57.9 °F 54% 30.12 in 10.0 mi South 10.4 mph - N/A   Clear
9:53 AM 80.1 °F 80.4 °F 57.0 °F 45% 30.11 in 10.0 mi SW 12.7 mph - N/A   Clear
10:53 AM 82.9 °F 82.1 °F 55.9 °F 39% 30.10 in 10.0 mi SW 12.7 mph 21.9 mph N/A   Clear
11:53 AM 84.0 °F 83.3 °F 57.0 °F 40% 30.09 in 10.0 mi SW 18.4 mph 25.3 mph N/A   Clear
12:53 PM 84.9 °F 83.6 °F 55.0 °F 36% 30.08 in 10.0 mi WSW 12.7 mph - N/A   Clear
1:53 PM 86.0 °F 85.0 °F 57.9 °F 38% 30.06 in 10.0 mi SW 13.8 mph 23.0 mph N/A   Partly Cloudy
2:53 PM 86.0 °F 84.9 °F 57.0 °F 37% 30.05 in 10.0 mi SSW 15.0 mph 24.2 mph N/A   Partly Cloudy
3:53 PM 84.9 °F 83.7 °F 55.9 °F 37% 30.04 in 10.0 mi South 12.7 mph 19.6 mph N/A   Partly Cloudy
4:53 PM 86.0 °F 84.9 °F 57.0 °F 37% 30.02 in 10.0 mi SSW 10.4 mph - N/A   Mostly Cloudy
5:53 PM 86.0 °F 84.9 °F 57.0 °F 37% 30.01 in 10.0 mi SW 15.0 mph 20.7 mph N/A   Partly Cloudy
6:53 PM 82.9 °F 82.4 °F 57.0 °F 41% 30.01 in 10.0 mi SW 11.5 mph - N/A   Mostly Cloudy
7:53 PM 81.0 °F 81.0 °F 57.0 °F 44% 30.01 in 10.0 mi SW 12.7 mph - N/A   Mostly Cloudy
8:53 PM 78.1 °F - 57.9 °F 50% 30.01 in 10.0 mi SSW 8.1 mph - N/A   Clear
9:53 PM 75.9 °F - 59.0 °F 56% 30.01 in 10.0 mi South 5.8 mph - N/A   Scattered Clouds
10:53 PM 75.0 °F - 57.9 °F 55% 30.01 in 10.0 mi South 8.1 mph - N/A   Clear
11:53 PM 73.9 °F - 57.9 °F 57% 30.01 in 10.0 mi South 6.9 mph - N/A   Clear